| time (UTC) | temp F | wind direction | speed knots | gust knots | rain 1hr in | rain 24hr in | rain mn in | humidity % | barometer mb |
| 20260506061421 | 43 | 286 | 0.0 | 0.9 | 0.08 | 1.76 | 0.26 | 92 | 1009.7 |
| 20260506060521 | 43 | 248 | 0.0 | 0.9 | 0.08 | 1.75 | 0.25 | 92 | 1009.7 |
| 20260506051122 | 45 | 339 | 0.0 | 0.9 | 0.14 | 1.68 | 0.18 | 92 | 1008.6 |
| 20260506050221 | 45 | 241 | 0.0 | 1.7 | 0.17 | 1.67 | 0.17 | 92 | 1008.5 |
| 20260506044422 | 45 | 286 | 0.9 | 2.6 | 0.00 | 1.64 | 0.14 | 92 | 1008.8 |
| 20260506043522 | 45 | 317 | 0.9 | 2.6 | 0.00 | 1.61 | 0.11 | 92 | 1009.7 |
| 20260506042621 | 46 | 305 | 0.0 | 0.0 | 0.00 | 1.58 | 0.08 | 92 | 1009.4 |
| 20260506041722 | 45 | 307 | 0.0 | 0.0 | 0.00 | 1.56 | 0.06 | 92 | 1009.2 |
| 20260506040822 | 45 | 310 | 0.0 | 0.9 | 0.00 | 1.53 | 0.03 | 92 | 1009.1 |
| 20260506035922 | 46 | 304 | 0.9 | 1.7 | 0.00 | 1.50 | 0.00 | 92 | 1008.9 |
| 20260506034122 | 46 | 97 | 1.7 | 2.6 | 0.21 | 1.50 | 1.50 | 92 | 1008.0 |
| 20260506033222 | 46 | 132 | 0.9 | 1.7 | 0.21 | 1.49 | 1.49 | 92 | 1008.3 |
| 20260506032321 | 46 | 144 | 0.9 | 1.7 | 0.17 | 1.45 | 1.45 | 92 | 1008.8 |
| 20260506031422 | 46 | 304 | 0.9 | 0.9 | 0.11 | 1.39 | 1.39 | 92 | 1009.2 |
| 20260506030521 | 47 | 290 | 0.9 | 1.7 | 0.04 | 1.31 | 1.31 | 92 | 1009.2 |
| 20260506025621 | 47 | 260 | 0.9 | 5.2 | 0.02 | 1.29 | 1.29 | 92 | 1008.3 |
| 20260506024723 | 47 | 241 | 0.0 | 0.9 | 0.03 | 1.29 | 1.29 | 92 | 1008.2 |
| 20260506023821 | 47 | 120 | 0.9 | 2.6 | 0.03 | 1.28 | 1.28 | 92 | 1008.1 |
| 20260506022924 | 47 | 278 | 0.9 | 0.9 | 0.04 | 1.28 | 1.28 | 92 | 1008.2 |
| 20260506022023 | 47 | 163 | 0.0 | 0.9 | 0.07 | 1.28 | 1.28 | 92 | 1008.4 |
| 20260506021122 | 47 | 269 | 0.9 | 1.7 | 0.09 | 1.28 | 1.28 | 92 | 1008.5 |
| 20260506020221 | 47 | 146 | 0.9 | 1.7 | 0.10 | 1.27 | 1.27 | 92 | 1008.7 |
| 20260506015322 | 47 | 240 | 0.0 | 0.9 | 0.09 | 1.26 | 1.26 | 92 | 1008.8 |
| 20260506014421 | 47 | 105 | 0.0 | 0.9 | 0.11 | 1.26 | 1.26 | 92 | 1008.8 |
| 20260506013522 | 47 | 146 | 0.0 | 1.7 | 0.13 | 1.25 | 1.25 | 92 | 1008.5 |
| 20260506012621 | 48 | 290 | 0.0 | 0.9 | 0.14 | 1.23 | 1.23 | 92 | 1008.8 |
| 20260506011721 | 47 | 253 | 0.0 | 0.0 | 0.14 | 1.20 | 1.20 | 92 | 1008.5 |
| 20260506010821 | 48 | 234 | 0.0 | 1.7 | 0.18 | 1.18 | 1.18 | 92 | 1008.4 |
| 20260506005921 | 47 | 178 | 0.0 | 0.9 | 0.21 | 1.17 | 1.17 | 92 | 1008.1 |
| 20260506005022 | 48 | 231 | 0.0 | 0.0 | 0.25 | 1.17 | 1.17 | 91 | 1008.0 |
| 20260506004125 | 48 | 130 | 0.0 | 0.9 | 0.26 | 1.14 | 1.14 | 91 | 1008.3 |
| 20260506003221 | 48 | 311 | 0.0 | 0.9 | 0.27 | 1.12 | 1.12 | 91 | 1008.6 |
| 20260506002322 | 48 | 299 | 0.9 | 0.9 | 0.26 | 1.09 | 1.09 | 91 | 1008.6 |
| 20260506001422 | 49 | 317 | 0.9 | 1.7 | 0.23 | 1.04 | 1.04 | 91 | 1008.4 |
| 20260506000522 | 49 | 306 | 0.0 | 1.7 | 0.21 | 0.99 | 0.99 | 91 | 1008.4 |
| 20260505233822 | 49 | 312 | 0.9 | 2.6 | 0.15 | 0.88 | 0.88 | 91 | 1007.7 |
| 20260505232921 | 49 | 304 | 0.9 | 2.6 | 0.13 | 0.84 | 0.84 | 91 | 1007.8 |
| 20260505230223 | 51 | 307 | 1.7 | 2.6 | 0.15 | 0.78 | 0.78 | 90 | 1007.4 |
| 20260505225322 | 51 | 310 | 1.7 | 2.6 | 0.15 | 0.77 | 0.77 | 90 | 1007.4 |
| 20260505224422 | 52 | 313 | 1.7 | 4.3 | 0.13 | 0.74 | 0.74 | 89 | 1007.6 |
| 20260505222621 | 58 | 306 | 6.1 | 7.8 | 0.09 | 0.69 | 0.69 | 88 | 1007.3 |
| 20260505220821 | 58 | 188 | 0.0 | 2.6 | 0.05 | 0.65 | 0.65 | 90 | 1007.2 |
| 20260505215921 | 58 | 230 | 0.0 | 1.7 | 0.03 | 0.63 | 0.63 | 90 | 1007.2 |
| 20260505214123 | 58 | 172 | 1.7 | 2.6 | 0.01 | 0.61 | 0.61 | 90 | 1007.0 |
| 20260505213223 | 58 | 211 | 0.9 | 2.6 | 0.00 | 0.60 | 0.60 | 90 | 1007.1 |
| 20260505212322 | 58 | 203 | 1.7 | 4.3 | 0.00 | 0.60 | 0.60 | 90 | 1007.1 |
| 20260505211423 | 58 | 174 | 1.7 | 5.2 | 0.00 | 0.60 | 0.60 | 90 | 1007.1 |
| 20260505205623 | 58 | 204 | 2.6 | 2.6 | 0.01 | 0.60 | 0.60 | 89 | 1007.1 |
| 20260505204722 | 58 | 198 | 4.3 | 4.3 | 0.03 | 0.60 | 0.60 | 89 | 1007.2 |
| 20260505204506 | 58 | 157 | 2.6 | 2.6 | 0.05 | 0.60 | 0.60 | 89 | 1007.1 |
| 20260505203825 | 58 | 157 | 2.6 | 2.6 | 0.05 | 0.60 | 0.60 | 89 | 1007.1 |
| 20260505202921 | 58 | 152 | 2.6 | 5.2 | 0.06 | 0.60 | 0.60 | 89 | 1007.1 |
| 20260505202022 | 58 | 185 | 1.7 | 2.6 | 0.07 | 0.60 | 0.60 | 89 | 1007.2 |
| 20260505201121 | 58 | 163 | 2.6 | 5.2 | 0.08 | 0.60 | 0.60 | 89 | 1007.3 |
| 20260505200223 | 59 | 123 | 4.3 | 6.1 | 0.11 | 0.60 | 0.60 | 89 | 1007.3 |
| 20260505195322 | 59 | 135 | 2.6 | 6.1 | 0.11 | 0.58 | 0.58 | 88 | 1007.5 |
| 20260505194423 | 59 | 183 | 4.3 | 6.1 | 0.11 | 0.56 | 0.56 | 88 | 1007.6 |
| 20260505193521 | 59 | 165 | 1.7 | 2.6 | 0.11 | 0.54 | 0.54 | 88 | 1007.7 |
| 20260505192622 | 59 | 188 | 2.6 | 2.6 | 0.12 | 0.54 | 0.54 | 88 | 1007.8 |
| 20260505190853 | 59 | 210 | 4.3 | 7.0 | 0.09 | 0.51 | 0.51 | 86 | 1008.0 |
| 20260505190821 | 59 | 210 | 4.3 | 7.0 | 0.09 | 0.51 | 0.51 | 86 | 1008.0 |
| 20260505185921 | 60 | 237 | 2.6 | 4.3 | 0.06 | 0.48 | 0.48 | 86 | 1008.0 |
| 20260505185021 | 60 | 198 | 4.3 | 5.2 | 0.06 | 0.47 | 0.47 | 84 | 1008.0 |
| 20260505182320 | 61 | 210 | 1.7 | 2.6 | 0.01 | 0.42 | 0.42 | 83 | 1007.9 |
| 20260505181421 | 61 | 237 | 0.9 | 4.3 | 0.01 | 0.42 | 0.42 | 83 | 1008.0 |
| 20260505180521 | 61 | 257 | 1.7 | 2.6 | 0.01 | 0.42 | 0.42 | 82 | 1007.9 |
| 20260505175622 | 62 | 246 | 1.7 | 2.6 | 0.01 | 0.42 | 0.42 | 80 | 1007.9 |
| 20260505174724 | 62 | 207 | 2.6 | 5.2 | 0.00 | 0.41 | 0.41 | 78 | 1008.0 |
| 20260505173821 | 63 | 209 | 4.3 | 11.3 | 0.00 | 0.41 | 0.41 | 77 | 1008.1 |
| 20260505172921 | 63 | 240 | 4.3 | 7.0 | 0.00 | 0.41 | 0.41 | 76 | 1008.0 |
| 20260505172021 | 63 | 191 | 5.2 | 8.7 | 0.00 | 0.41 | 0.41 | 75 | 1007.9 |
| 20260505171123 | 64 | 210 | 4.3 | 7.8 | 0.00 | 0.41 | 0.41 | 76 | 1008.1 |
| 20260505170221 | 64 | 198 | 6.1 | 7.8 | 0.00 | 0.41 | 0.41 | 75 | 1008.1 |
| 20260505165321 | 64 | 199 | 6.1 | 8.7 | 0.00 | 0.41 | 0.41 | 76 | 1008.0 |
| 20260505164421 | 64 | 219 | 2.6 | 5.2 | 0.00 | 0.41 | 0.41 | 76 | 1007.9 |
| 20260505163523 | 64 | 258 | 4.3 | 7.8 | 0.00 | 0.41 | 0.41 | 75 | 1008.1 |
| 20260505162621 | 64 | 246 | 2.6 | 5.2 | 0.00 | 0.41 | 0.41 | 76 | 1008.1 |
| 20260505160821 | 64 | 264 | 2.6 | 4.3 | 0.00 | 0.41 | 0.41 | 76 | 1008.4 |
| 20260505153222 | 64 | 246 | 4.3 | 6.1 | 0.00 | 0.41 | 0.41 | 77 | 1008.5 |
| 20260505152321 | 64 | 261 | 4.3 | 5.2 | 0.00 | 0.41 | 0.41 | 76 | 1008.3 |
| 20260505151421 | 64 | 243 | 6.1 | 8.7 | 0.00 | 0.41 | 0.41 | 77 | 1008.1 |
| 20260505150523 | 64 | 237 | 7.0 | 10.4 | 0.00 | 0.41 | 0.41 | 77 | 1008.3 |
| 20260505140223 | 61 | 220 | 4.3 | 7.0 | 0.00 | 0.41 | 0.41 | 81 | 1007.9 |
| 20260505124121 | 57 | 203 | 6.1 | 11.3 | 0.00 | 0.41 | 0.41 | 87 | 1007.4 |
| 20260505123220 | 56 | 158 | 4.3 | 2.6 | 0.00 | 0.41 | 0.41 | 87 | 1007.2 |
| 20260505122322 | 56 | 178 | 1.7 | 2.6 | 0.00 | 0.41 | 0.41 | 87 | 1007.2 |
| 20260505121422 | 56 | 181 | 2.6 | 6.1 | 0.00 | 0.41 | 0.41 | 88 | 1007.0 |
| 20260505120521 | 55 | 170 | 4.3 | 5.2 | 0.00 | 0.41 | 0.41 | 89 | 1007.1 |
| 20260505115620 | 55 | 149 | 2.6 | 4.3 | 0.00 | 0.41 | 0.41 | 89 | 1007.2 |
| 20260505114721 | 55 | 150 | 0.9 | 2.6 | 0.00 | 0.41 | 0.41 | 89 | 1007.2 |
| 20260505113820 | 55 | 213 | 1.7 | 2.6 | 0.00 | 0.41 | 0.41 | 89 | 1007.3 |
| 20260505112920 | 55 | 200 | 1.7 | 2.6 | 0.00 | 0.41 | 0.41 | 88 | 1007.2 |
| 20260505112026 | 55 | 172 | 1.7 | 2.6 | 0.00 | 0.41 | 0.41 | 88 | 1007.1 |
| 20260505111124 | 55 | 228 | 0.9 | 2.6 | 0.00 | 0.41 | 0.41 | 88 | 1007.0 |
| 20260505110223 | 55 | 139 | 1.7 | 5.2 | 0.00 | 0.41 | 0.41 | 88 | 1006.6 |
| 20260505100857 | 55 | 141 | 6.1 | 10.4 | 0.02 | 0.41 | 0.41 | 90 | 1005.4 |
| 20260505100821 | 55 | 141 | 6.1 | 10.4 | 0.02 | 0.41 | 0.41 | 90 | 1005.4 |
| 20260505095924 | 55 | 151 | 7.0 | 10.4 | 0.02 | 0.41 | 0.41 | 90 | 1005.7 |
| 20260505095021 | 55 | 118 | 7.0 | 11.3 | 0.01 | 0.40 | 0.40 | 90 | 1005.2 |
| 20260505094122 | 55 | 121 | 6.1 | 10.4 | 0.02 | 0.40 | 0.40 | 90 | 1006.1 |
| 20260505093222 | 55 | 139 | 5.2 | 6.1 | 0.04 | 0.40 | 0.40 | 90 | 1006.4 |
| 20260505085621 | 55 | 160 | 2.6 | 2.6 | 0.19 | 0.39 | 0.39 | 90 | 1007.9 |
| 20260505084722 | 55 | 252 | 0.9 | 2.6 | 0.21 | 0.38 | 0.38 | 90 | 1008.1 |
| 20260505083821 | 55 | 282 | 2.6 | 2.6 | 0.22 | 0.37 | 0.37 | 90 | 1008.2 |
| 20260505082921 | 55 | 286 | 2.6 | 5.2 | 0.24 | 0.35 | 0.35 | 90 | 1008.1 |
| 20260505082021 | 55 | 296 | 1.7 | 2.6 | 0.21 | 0.30 | 0.30 | 90 | 1007.9 |
| 20260505081121 | 55 | 296 | 0.9 | 1.7 | 0.19 | 0.26 | 0.26 | 90 | 1007.4 |
| 20260505080221 | 55 | 291 | 0.9 | 1.7 | 0.17 | 0.22 | 0.22 | 89 | 1007.3 |
| 20260505075321 | 55 | 311 | 0.9 | 1.7 | 0.14 | 0.18 | 0.18 | 89 | 1007.4 |
| 20260505074421 | 55 | 303 | 2.6 | 2.6 | 0.14 | 0.16 | 0.16 | 89 | 1007.4 |
| 20260505073521 | 55 | 303 | 0.9 | 0.9 | 0.14 | 0.14 | 0.14 | 88 | 1007.0 |
| 20260505072620 | 55 | 302 | 0.0 | 0.0 | 0.11 | 0.11 | 0.11 | 88 | 1006.8 |
| 20260505071722 | 56 | 302 | 2.6 | 4.3 | 0.08 | 0.08 | 0.08 | 87 | 1007.5 |
| 20260505065920 | 56 | 301 | 6.1 | 7.0 | 0.05 | 0.05 | 0.05 | 86 | 1007.6 |
| 20260505065021 | 57 | 304 | 6.1 | 7.0 | 0.04 | 0.04 | 0.04 | 84 | 1007.6 |
| 20260505064122 | 59 | 303 | 7.8 | 10.4 | 0.01 | 0.01 | 0.01 | 79 | 1007.7 |
| 20260505063220 | 63 | 303 | 12.2 | 17.4 | 0.00 | 0.00 | 0.00 | 73 | 1007.8 |
| 20260505062632 | 65 | 282 | 13.9 | 19.1 | 0.00 | 0.00 | 0.00 | 63 | 1007.0 |
| 20260505062320 | 65 | 282 | 13.9 | 19.1 | 0.00 | 0.00 | 0.00 | 63 | 1007.0 |